New & Packaged Gym and Exercise Equipment in San Jose, CA

Lot #0105B: Muscle-D Recumbent Bike (In Original Packaging)

Bidding is closed.
High Bid:$1,121.00
NA
Bidding Ended: Thu, Nov 18  10:08:00 am PT
High Bidder: Buyit
Bid Increment: $50.00
Starting Bid: $5.00
Item has been viewed 419 times.

Muscle-D Recumbent Bike (In Original Packaging)

  • Product Dimensions: 
    • Length: 66"
    • Height: 27"
    • Width: 53"
    • Weight: 243 lb
  • Incredibly comfortable bike with adjustable incline
    back rest.
  • Very quiet and super smooth operation
  • Extra LED display with large numbers for easy viewing
  • Multiple hill profile programs
  • One touch back rest adjustment
  • Quick length adjustment with convenient handle
  • Contact Heart Rate in handles
  • Wireless Heart Rate
  • Min Watts: 18 Watts @ 2 RPM
  • Max Watts: 420 Watts @ 90 RPM
  • Max User weight: 400 lb 136 kg
  • Resistance system: Self Generating
Bid Date Bid Amount Bidder
Nov 18, 2021 - 10:03:47 AM $1,121.00 iBuyit
Nov 18, 2021 - 10:03:47 AM $1,110.00 ijerome
Nov 18, 2021 - 10:00:40 AM $781.25 ijerome
Nov 18, 2021 - 10:00:40 AM $771.25 iRandyjkure
Nov 18, 2021 - 9:51:58 AM $761.25 ijerome
Nov 18, 2021 - 9:51:58 AM $751.25 imetalfab
Nov 18, 2021 - 9:45:23 AM $620.00 imetalfab
Nov 18, 2021 - 9:45:23 AM $610.00 ijerome
Nov 18, 2021 - 9:45:06 AM $510.00 ijerome
Nov 18, 2021 - 9:45:06 AM $500.00 iRandyjkure
Nov 18, 2021 - 9:44:51 AM $490.00 ijerome
Nov 18, 2021 - 9:44:51 AM $480.00 iRandyjkure
Nov 18, 2021 - 9:42:48 AM $470.00 ijerome
Nov 18, 2021 - 9:42:48 AM $460.00 iBuyit
Nov 18, 2021 - 9:42:44 AM $450.00 ijerome
Nov 18, 2021 - 9:42:44 AM $440.00 iBuyit
Nov 18, 2021 - 9:40:24 AM $430.00 ijerome
Nov 18, 2021 - 9:40:24 AM $420.00 iEveryoneWins
Nov 18, 2021 - 9:40:17 AM $410.00 ijerome
Nov 18, 2021 - 9:40:17 AM $400.00 iEveryoneWins
Nov 18, 2021 - 9:34:28 AM $390.00 ijerome
Nov 18, 2021 - 9:34:28 AM $380.00 iEveryoneWins
Nov 18, 2021 - 9:34:25 AM $370.00 ijerome
Nov 18, 2021 - 9:34:25 AM $360.00 iEveryoneWins
Nov 18, 2021 - 9:34:23 AM $350.00 ijerome
Nov 18, 2021 - 9:34:23 AM $340.00 iEveryoneWins
Nov 18, 2021 - 7:27:12 AM $330.00 ijerome
Nov 18, 2021 - 7:27:12 AM $320.00 iBuyit
Nov 18, 2021 - 7:25:40 AM $310.00 ijerome
Nov 18, 2021 - 7:25:40 AM $300.00 ihikonhui
Nov 18, 2021 - 7:25:23 AM $290.00 ihikonhui
Nov 18, 2021 - 7:25:23 AM $280.00 ijerome
Nov 18, 2021 - 7:24:56 AM $220.00 ihikonhui
Nov 18, 2021 - 7:24:56 AM $210.00 ijerome
Nov 17, 2021 - 7:13:41 PM $200.00 ihikonhui
Nov 17, 2021 - 7:13:42 PM $200.00 iAC_Bid
Nov 17, 2021 - 7:13:27 PM $190.00 ihikonhui
Nov 17, 2021 - 7:13:27 PM $180.00 iAC_Bid
Nov 17, 2021 - 7:13:12 PM $170.00 ihikonhui
Nov 17, 2021 - 7:13:12 PM $160.00 iAC_Bid
Nov 17, 2021 - 7:12:45 PM $150.00 ihikonhui
Nov 17, 2021 - 7:12:45 PM $140.00 iAC_Bid
Nov 16, 2021 - 11:37:17 PM $130.00 ihikonhui
Nov 16, 2021 - 11:37:17 PM $120.00 iIjcfoods
Nov 16, 2021 - 11:07:36 PM $105.00 ihikonhui
Nov 16, 2021 - 11:07:36 PM $100.00 iRandyjkure
Nov 16, 2021 - 9:33:39 PM $60.00 ihikonhui
Nov 16, 2021 - 9:33:39 PM $55.00 iscience
Nov 16, 2021 - 4:00:49 PM $50.00 ihikonhui
Nov 16, 2021 - 4:00:49 PM $45.00 isoswilm
Nov 16, 2021 - 12:34:35 PM $30.00 isoswilm
Nov 16, 2021 - 12:34:35 PM $25.00 iscience
Nov 16, 2021 - 12:33:36 PM $20.00 isoswilm
Nov 16, 2021 - 12:33:36 PM $15.00 iscience
Nov 16, 2021 - 12:15:32 PM $10.00 isoswilm
Nov 16, 2021 - 11:56:00 AM $5.00 iNickjake
Click on any picture to see a larger image.